Weather History for Monarch Pass, CO

Change the Weather History Date:

Tuesday, December 27, 2011

  Actual Average (KGUC) Record (KGUC)
Temperature  
Mean Temperature 18 °F -  
Max Temperature 23 °F 23 °F 37 °F (2011)
Min Temperature 14 °F 0 °F -18 °F (2008)
Degree Days  
Heating Degree Days 46    
Moisture  
Dew Point 0 °F    
Average Humidity 45    
Maximum Humidity 58    
Minimum Humidity 33    
Precipitation  
Precipitation 0.00 in - - ()
Sea Level Pressure  
Sea Level Pressure 30.29 in    
Wind  
Wind Speed 40 mph (West)    
Max Wind Speed 51 mph    
Max Gust Speed 53 mph    
Visibility 9 miles    
Events Snow , Thunderstorm    
Averages and records for this station are not official NWS values.
T = Trace of Precipitation, MM = Missing Value Source: NWS Daily Summary

Daily Weather History Graph

Daily Weather History Graph

Search for Another Location

Airport:

Trip Planner

Search our weather history database for the weather conditions in past years. The results will help you decide how hot, cold, wet, or windy it might be!

Date:

Astronomy

Dec. 27, 2011 Rise Set
Actual Time 7:21 AM MST 4:51 PM MST
Civil Twilight 6:51 AM MST 5:20 PM MST
Nautical Twilight 6:18 AM MST 5:54 PM MST
Astronomical Twilight 5:46 AM MST 6:26 PM MST
Moon 9:20 AM MST (12/27) 8:25 PM MST (12/27)
Length of Visible Light 10h 29m
Length of Day
9h 29m
Waxing Crescent, 11% of the Moon is Illuminated
Dec 27
Waxing Crescent
Dec 31
First Quarter
Jan 9
Full
Jan 16
Last Quarter
Jan 23
New

Hourly Weather History & Observations

Time (MST) Temp. Windchill Dew Point Humidity Pressure Visibility Wind Dir Wind Speed Gust Speed Precip Events Conditions
12:03 AM 15.8 °F -7.5 °F 3.2 °F 58% 30.34 in 10.0 mi West 43.7 mph - N/A   Clear
12:23 AM 15.8 °F -7.3 °F 3.2 °F 58% 30.34 in 10.0 mi West 42.6 mph - N/A   Clear
12:43 AM 17.6 °F -4.5 °F 1.4 °F 49% 30.35 in 10.0 mi West 41.4 mph 44.9 mph N/A   Clear
1:23 AM 19.4 °F -2.0 °F -0.4 °F 42% 30.34 in 10.0 mi West 41.4 mph 48.3 mph N/A Thunderstorm Thunderstorm
1:43 AM 19.4 °F -2.7 °F -0.4 °F 42% 30.34 in 10.0 mi West 44.9 mph - N/A   Clear
2:03 AM 19.4 °F -2.7 °F -0.4 °F 42% 30.33 in 10.0 mi West 44.9 mph - N/A   Clear
2:23 AM 17.6 °F -4.7 °F -0.4 °F 45% 30.33 in 10.0 mi West 42.6 mph - N/A   Clear
2:43 AM 17.6 °F -5.0 °F -0.4 °F 45% 30.32 in 10.0 mi West 43.7 mph - N/A   Clear
3:03 AM 17.6 °F -4.7 °F -0.4 °F 45% 30.33 in 10.0 mi West 42.6 mph - N/A   Clear
3:43 AM 17.6 °F -4.7 °F -0.4 °F 45% 30.31 in 10.0 mi West 42.6 mph - N/A   Clear
4:03 AM 17.6 °F -5.2 °F -0.4 °F 45% 30.30 in 10.0 mi West 44.9 mph 49.5 mph N/A   Clear
4:23 AM 17.6 °F -5.0 °F -0.4 °F 45% 30.30 in 10.0 mi West 43.7 mph - N/A   Clear
4:43 AM 15.8 °F -7.0 °F -0.4 °F 49% 30.30 in 10.0 mi West 41.4 mph - N/A   Clear
5:23 AM 14.0 °F -10.2 °F 1.4 °F 57% 30.30 in 10.0 mi West 44.9 mph - N/A   Clear
5:43 AM 14.0 °F -11.1 °F -0.4 °F 53% 30.29 in 10.0 mi West 49.5 mph - N/A   Clear
6:03 AM 14.0 °F -10.9 °F -0.4 °F 53% 30.29 in 10.0 mi West 48.3 mph - N/A   Clear
6:23 AM 14.0 °F -10.5 °F -0.4 °F 53% 30.29 in 10.0 mi West 46.0 mph 49.5 mph N/A Thunderstorm Clear
6:43 AM 14.0 °F -11.3 °F -0.4 °F 53% 30.29 in 10.0 mi West 50.6 mph - N/A Thunderstorm Clear
7:03 AM 14.0 °F -10.7 °F -0.4 °F 53% 30.29 in 10.0 mi West 47.2 mph - N/A Thunderstorm Clear
7:23 AM 14.0 °F -11.1 °F -0.4 °F 53% 30.29 in 10.0 mi West 49.5 mph - N/A Thunderstorm Clear
7:43 AM 14.0 °F -10.5 °F -0.4 °F 53% 30.30 in 10.0 mi West 46.0 mph - N/A Thunderstorm Clear
8:03 AM 15.8 °F -7.7 °F -2.2 °F 45% 30.30 in 10.0 mi West 44.9 mph - N/A   Clear
8:23 AM 17.6 °F -5.2 °F -2.2 °F 42% 30.31 in 10.0 mi West 44.9 mph - N/A   Clear
8:43 AM 19.4 °F -1.3 °F -5.8 °F 33% 30.32 in 10.0 mi West 38.0 mph - N/A   Clear
9:03 AM 19.4 °F -1.3 °F -5.8 °F 33% 30.33 in 10.0 mi West 38.0 mph - N/A   Clear
9:23 AM 19.4 °F 1.8 °F -4.0 °F 36% 30.33 in 10.0 mi WSW 25.3 mph - N/A   Clear
9:43 AM 17.6 °F -0.6 °F -0.4 °F 45% 30.34 in 10.0 mi WSW 25.3 mph - N/A   Clear
10:03 AM 17.6 °F -1.3 °F -0.4 °F 45% 30.34 in 10.0 mi SW 27.6 mph - N/A   Clear
10:23 AM 19.4 °F 0.8 °F -0.4 °F 42% 30.33 in 10.0 mi WSW 28.8 mph - N/A   Clear
10:43 AM 19.4 °F -0.3 °F -0.4 °F 42% 30.31 in 10.0 mi WSW 33.4 mph - N/A   Clear
11:03 AM 19.4 °F 0.2 °F -0.4 °F 42% 30.31 in 7.0 mi WSW 31.1 mph 38.0 mph N/A   Clear
11:23 AM 19.4 °F -0.8 °F 1.4 °F 46% 30.30 in 7.0 mi West 35.7 mph 41.4 mph N/A   Clear
11:43 AM 21.2 °F 1.9 °F -0.4 °F 39% 30.29 in 7.0 mi West 34.5 mph 44.9 mph N/A   Clear
12:03 PM 21.2 °F 2.4 °F 1.4 °F 42% 30.29 in 4.0 mi WSW 32.2 mph 43.7 mph N/A   Haze
12:23 PM 21.2 °F 2.7 °F 1.4 °F 42% 30.28 in 7.0 mi WSW 31.1 mph 42.6 mph N/A   Clear
12:43 PM 21.2 °F 1.9 °F 1.4 °F 42% 30.27 in 7.0 mi West 34.5 mph 42.6 mph N/A   Clear
1:03 PM 21.2 °F 0.3 °F 1.4 °F 42% 30.26 in 7.0 mi West 42.6 mph 52.9 mph N/A   Clear
1:23 PM 21.2 °F 2.7 °F -0.4 °F 39% 30.25 in 7.0 mi West 31.1 mph 43.7 mph N/A   Clear
1:43 PM 23.0 °F 4.4 °F 1.4 °F 39% 30.25 in 7.0 mi West 34.5 mph 42.6 mph N/A   Clear
2:03 PM 21.2 °F 2.4 °F -0.4 °F 39% 30.24 in 5.0 mi WSW 32.2 mph 43.7 mph N/A   Haze
2:23 PM 21.2 °F 0.1 °F 1.4 °F 42% 30.25 in 4.0 mi West 43.7 mph 51.8 mph N/A Thunderstorm Haze
2:43 PM 21.2 °F 0.9 °F -0.4 °F 39% 30.25 in 5.0 mi West 39.1 mph 50.6 mph N/A Thunderstorm Haze
3:03 PM 21.2 °F 1.7 °F -0.4 °F 39% 30.25 in 7.0 mi West 35.7 mph 42.6 mph N/A   Clear
3:23 PM 21.2 °F 4.2 °F -0.4 °F 39% 30.26 in 10.0 mi West 25.3 mph 46.0 mph N/A   Clear
3:43 PM 21.2 °F 3.0 °F 1.4 °F 42% 30.25 in 10.0 mi West 29.9 mph 38.0 mph N/A   Clear
4:03 PM 21.2 °F 3.5 °F 1.4 °F 42% 30.25 in 10.0 mi West 27.6 mph 39.1 mph N/A   Clear
4:23 PM 21.2 °F 3.3 °F -0.4 °F 39% 30.25 in 10.0 mi West 28.8 mph 36.8 mph N/A   Clear
4:43 PM 19.4 °F -0.3 °F -0.4 °F 42% 30.25 in 10.0 mi West 33.4 mph 40.3 mph N/A   Clear
5:03 PM 19.4 °F 0.8 °F 1.4 °F 46% 30.26 in 10.0 mi West 28.8 mph 40.3 mph N/A   Clear
5:23 PM 19.4 °F 2.5 °F 1.4 °F 46% 30.27 in 10.0 mi West 23.0 mph 36.8 mph N/A   Clear
5:43 PM 17.6 °F 0.1 °F 1.4 °F 49% 30.27 in 10.0 mi West 23.0 mph 27.6 mph N/A   Clear
6:03 PM 17.6 °F 0.5 °F -0.4 °F 45% 30.28 in 10.0 mi West 21.9 mph 25.3 mph N/A   Scattered Clouds
6:23 PM 17.6 °F -1.3 °F -0.4 °F 45% 30.27 in 10.0 mi West 27.6 mph 34.5 mph N/A   Scattered Clouds
6:43 PM 17.6 °F 0.9 °F 1.4 °F 49% 30.28 in 10.0 mi West 20.7 mph 34.5 mph N/A   Clear
7:03 PM 17.6 °F -0.6 °F 1.4 °F 49% 30.29 in 10.0 mi West 25.3 mph 31.1 mph N/A   Mostly Cloudy
7:23 PM 15.8 °F -6.3 °F 3.2 °F 58% 30.27 in 10.0 mi West 38.0 mph - N/A   Scattered Clouds
7:43 PM 15.8 °F -6.6 °F 3.2 °F 58% 30.27 in 7.0 mi West 39.1 mph 44.9 mph N/A Snow Light Snow
8:03 PM 14.0 °F -10.5 °F 3.2 °F 62% 30.25 in 5.0 mi West 46.0 mph 56.4 mph N/A Thunderstorm Haze
8:23 PM 14.0 °F -11.1 °F 3.2 °F 62% 30.24 in 5.0 mi West 49.5 mph 55.2 mph N/A Snow , Thunderstorm Light Thunderstorms and Snow
8:43 PM 14.0 °F -11.3 °F 3.2 °F 62% 30.23 in 2.5 mi West 50.6 mph 63.3 mph N/A Snow , Thunderstorm Light Thunderstorms and Snow
9:04 PM 14.0 °F -9.8 °F 5.0 °F 67% 30.24 in 3.0 mi West 42.6 mph 54.1 mph N/A Snow , Thunderstorm Light Thunderstorms and Snow
9:17 PM 14.0 °F -2.5 °F 3.2 °F 62% 30.30 in 7.0 mi SSW 17.3 mph 32.2 mph N/A Thunderstorm Clear
9:43 PM 14.0 °F -6.2 °F 3.2 °F 62% 30.30 in 10.0 mi WSW 27.6 mph 34.5 mph N/A   Clear
10:03 PM 14.0 °F -5.8 °F 3.2 °F 62% 30.30 in 10.0 mi WSW 26.5 mph 41.4 mph N/A Thunderstorm Clear
10:23 PM 12.2 °F -7.9 °F 3.2 °F 67% 30.32 in 10.0 mi WSW 25.3 mph 36.8 mph N/A   Clear
10:44 PM 12.2 °F -9.3 °F 3.2 °F 67% 30.33 in 10.0 mi West 29.9 mph 35.7 mph N/A   Clear
11:04 PM 12.2 °F -8.6 °F 3.2 °F 67% 30.32 in 10.0 mi WSW 27.6 mph 33.4 mph N/A   Clear
11:24 PM 10.4 °F -12.7 °F 3.2 °F 73% 30.32 in 10.0 mi WSW 33.4 mph 38.0 mph N/A   Clear
11:44 PM 10.4 °F -12.3 °F 3.2 °F 73% 30.31 in 10.0 mi WSW 32.2 mph 42.6 mph N/A   Clear